Simultaneous Nadir Overpasses (SNOs) Predictions

Prediction of SNOs between METOP-A and NOAA-19 Satellite Orbit:

Table of predicted SNOs for the next 14.0 days since TLE Epoch: 12/7/2018
Index Date (METOP-A) Time (METOP-A) Lat,Lon (METOP-A) SZA (METOP-A ) Date (NOAA-19) Time (NOAA-19) Lat,Lon (NOAA-19) SZA (NOAA-19 ) Distance(km) Time Diff (sec)
1 12/12/2018 18:12:20 79.48, -80.33 102.83 12/12/2018 18:11:17 79.44, -85.06 102.62 96.25 63
2 12/12/2018 19:03:11 -79.15, 84.53 77.59 12/12/2018 19:02:03 -79.17, 84.63 77.58 3.13 68
3 12/12/2018 19:53:51 79.14,-108.16 102.41 12/12/2018 19:53:09 79.16,-108.10 102.43 2.70 42
4 12/12/2018 20:44:32 -79.16, 59.30 77.57 12/12/2018 20:44:03 -79.14, 59.39 77.59 3.32 29
5 12/12/2018 21:35:11 79.16,-133.40 102.43 12/12/2018 21:35:08 79.13,-133.34 102.41 3.07 3
6 12/12/2018 22:25:53 -79.14, 33.81 77.59 12/12/2018 22:26:03 -79.14, 33.89 77.59 1.70 10
7 12/12/2018 23:16:33 79.13,-158.89 102.41 12/12/2018 23:17:09 79.13,-158.84 102.42 1.13 36
8 12/13/2018 00:07:15 -79.12, 8.32 77.61 12/13/2018 00:08:04 -79.14, 8.38 77.58 2.55 49
9 12/13/2018 00:57:55 79.11, 175.62 102.39 12/13/2018 00:59:10 79.13, 175.66 102.42 2.24 75




NCC Satellite Simultaneous Nadir Overpasses (SNOs) Prediction Service
